    Observer details:
    046 Klet.  Observers M. Tichy, M. Janda.  Measurer M. Tichy.  0.57-m f/5.2
        reflector + CCD.
    104 San Marcello Pistoiese.  Observers P. Bacci, M. Maestripieri, L. Nesti.
        Measurers P. Bacci, L. Tesi, G. Fagioli.  0.60-m reflector + CCD.
    160 Castelmartini.  Observers M. Jaeger, E. Prosperi, S. Prosperi, W. Vollmann.
        Measurer E. Prosperi.  0.35-m f/10 Schmidt-Cassegrain + CCD.
    203 GiaGa Observatory.  Observers S. Foglia, G. Galli.  Measurer G. Galli.
        0.28-m f/6.8 Schmidt-Cassegrain + CCD.
    204 Schiaparelli Observatory.  Observer L. Buzzi.  0.60-m f/4.64 reflector
        + CCD.
    246 Klet Observatory-KLENOT.  Observers M. Tichy, J. Ticha.  Measurer M. Tichy.
        1.06-m KLENOT Telescope + CCD.
    587 Sormano.  Observers A. Fumagalli, P. Sicoli, A. Testa, G. Ventre.
        Measurer P. Sicoli.  0.5-m f/6.8 reflector + CCD.
    703 Catalina Sky Survey.  Observer R. G. Matheny.  Measurers E. J. Christensen,
        D. C. Fuls, A. R. Gibbs, A. D. Grauer, J. A. Johnson, R. A. Kowalski,
        S. M. Larson, G. J. Leonard, R. G. Matheny, R. L. Seaman, F. C. Shelly.
        0.68-m Schmidt + 10K CCD.
    926 Tenagra II Observatory.  Observers M. Schwartz, P. R. Holvorcem.  Measurer
        M. Schwartz.  0.81-m f/7 Ritchey-Chretien + CCD.
    A17 Guidestar Observatory, Weinheim.  Observers M. Emmerich, S. Melchert.
        0.36-m f/6 Schmidt-Cassegrain + CCD.
    C43 Hoyerswerda.  Observer P. Lindner.  0.30-m f/6.3 Schmidt-Cassegrain + CCD.
    G96 Mt. Lemmon Survey.  Observer J. A. Johnson.  Measurers E. J. Christensen,
        D. C. Fuls, A. R. Gibbs, A. D. Grauer, J. A. Johnson, R. A. Kowalski,
        S. M. Larson, G. J. Leonard, R. G. Matheny, R. L. Seaman, F. C. Shelly.
        1.5-m reflector + 10K CCD.
    H06 iTelescope Observatory, Mayhill.  Observer M. Suzuki.  0.43-m f/6.8
        reflector + CCD + f/4.5 focal reducer.
    I52 Steward Observatory, Mt. Lemmon Station.  Observer R. G. Matheny.
        Measurers E. J. Christensen, D. C. Fuls, A. R. Gibbs, A. D. Grauer,
        J. A. Johnson, R. A. Kowalski, S. M. Larson, G. J. Leonard, R. G. Matheny,
        R. L. Seaman, F. C. Shelly.  1.0-m reflector + CCD.
    K63 G. Pascoli Observatory, Castelvecchio Pascoli.  Observer R. Bacci.  0.40-m
        f/3.2 Newtonian reflector + CCD.
    K88 GINOP-KHK, Piszkesteto.  Observer K. Sarneczky.  0.60-m Schmidt + CCD.
    Q62 iTelescope Observatory, Siding Spring.  Observers S. Foglia, L. Buzzi,
        P. Concari, C. Cremaschini, G. Galli, M. Tombelli.  0.15-m f/7 refractor
        + CCD.
    Y00 SONEAR Observatory, Oliveira.  Observers C. Jacques, E. Pimentel,
        J. Barros.  Measurer C. Jacques.  0.45-m f/2.9 reflector + CCD.
    
    Orbital elements:
    2017 TH4                                                 Earth MOID = 0.0069 AU
    Epoch 2017 Sept. 4.0 TT = JDT 2458000.5                 MPC
    M  27.14595              (2000.0)            P               Q
    n   0.91407681     Peri.   71.65087     +0.01108957     +0.99689066
    a   1.0515121      Node   199.48762     -0.98282891     -0.00350405
    e   0.3968499      Incl.   13.52383     -0.18418565     +0.07871933
    P   1.08           H   24.5           G   0.15           U   6
    Residuals in seconds of arc
    171013 703  0.2+  0.0     171013 160  0.1+  0.5-    171014 703  0.6+  0.5+
    171013 703  0.1+  0.0     171013 160  0.3+  0.1+    171014 703  0.2-  0.1-
    171013 703  0.4+  0.9+    171013 160  0.3+  0.0     171014 926  0.5-  0.2+
    171013 703  0.4+  0.3+    171013 160  0.1+  0.1+    171014 926  0.5-  0.1+
    171013 G96  0.3-  0.1-    171013 C43  0.2+  0.4-    171014 926  0.4-  0.3+
    171013 G96  0.3-  0.2-    171013 C43  1.0-  1.5+    171014 246  0.5+  0.0
    171013 G96  0.1-  0.0     171013 C43  1.0-  0.7+    171014 246  0.1-  0.2-
    171013 G96  0.3-  0.1-    171013 C43  0.6-  0.7+    171014 246  0.2+  0.1+
    171013 H06  0.1-  0.1-    171013 104  0.5+  0.0     171014 246  0.2+  0.2-
    171013 H06  0.0   0.2+    171013 104  0.3+  0.1+    171014 246  0.2-  0.2-
    171013 703  0.2-  0.0     171013 104  0.3+  0.1+    171014 246  0.0   0.0
    171013 703  0.2-  0.1-    171013 104  0.0   0.2-    171014 246  0.1+  0.2-
    171013 703  0.5-  0.2-    171013 A17  0.1+  0.1+    171014 246  0.3+  0.5+
    171013 703  0.2+  0.1-    171013 A17  0.1+  0.0     171014 587  0.0   0.1-
    171013 703  0.2-  0.4+    171013 K63  1.0-  0.9-    171014 587  0.5-  0.6-
    171013 703  0.1-  0.2+    171013 A17  0.1-  0.0     171014 587  0.1+  0.1-
    171013 Q62  0.9-  0.9-    171013 K63  0.4-  0.4-    171014 046  0.6-  1.2-
    171013 Q62  0.2-  0.8-    171013 K63  0.7-  0.6-    171014 046  0.9-  0.2-
    171013 Q62  0.1+  0.6-    171014 203  0.1+  0.3+    171014 046  0.9+  0.1+
    171013 Q62  0.5+  0.7-    171014 203  0.3-  0.2-    171014 046  2.7+  0.7-
    171013 Q62  0.1-  0.3+    171014 K88  0.5-  0.5+    171014 046  0.2-  0.0
    171013 Q62  0.2+  0.1+    171014 K88  0.2-  0.3+    171014 046  0.8+  0.5+
    171013 204  0.1-  0.2-    171014 K88  0.6-  0.0     171015 926  0.3-  0.3-
    171013 204  0.2+  0.0     171014 203  0.0   0.4+    171015 926  0.2-  0.0
    171013 204  0.0   0.3-    171014 Y00  0.9-  0.7+    171015 926  0.2-  0.1+
    171013 204  0.1-  0.4-    171014 Y00  0.1-  0.4-    171015 I52  0.6-  0.2+
    171013 160  0.6+  0.0     171014 Y00  0.3-  0.1-    171015 I52  0.5-  0.1+
    171013 204  0.2+  0.2-    171014 703  0.1+  0.4+    171015 I52  0.5-  0.2+
    171013 160  0.6+  0.0     171014 703  0.1+  0.1+    171015 I52  0.3-  0.2+
    
    Ephemeris:
    2017 TH4                 a,e,i = 1.05, 0.40, 14                  q = 0.6342
    Date    TT    R. A. (2000) Decl.     Delta      r     Elong.  Phase     V
    2017 09 15    12 49 24.2 +23 22 09   0.2186  0.8186    27.7   145.1    28.4
    ...
    2017 09 30    12 31 05.0 +29 36 38   0.08988 0.9268    32.3   144.7    26.6
    ...
    2017 10 08    10 42 19.8 +43 06 30   0.02897 0.9838    57.3   121.3    21.7
    ...
    2017 10 14    02 45 26.3 +01 46 31   0.03021 1.0254   156.9    22.4    18.0
    2017 10 15    02 26 13.0 -03 24 47   0.03716 1.0321   159.7    19.6    18.4
    2017 10 16    02 13 02.4 -06 54 37   0.04451 1.0389   160.0    19.1    18.8
    ...
    2017 10 22    01 39 27.2 -15 08 55   0.09189 1.0785   153.8    24.0    20.6
    ...
    2017 10 30    01 26 45.4 -17 31 32   0.1587  1.1288   146.4    29.1    22.0
    ...
    2017 11 14    01 23 00.3 -17 06 40   0.2926  1.2142   135.0    35.2    23.7
    
    A. U. Tomatic                (C) Copyright 2017 MPC           M.P.E.C. 2017-T84
    

    Read MPEC 2017-T83 Read MPEC 2017-T85


    MPEC number:

    Enter an MPEC number in one of the following forms:

    • 1997-B01 (the full form)
    • J97B01 (the packed version of the full form)
    • B01 (the abbreviated form)